Terminal Aerodrome Forecast
Issued by NWS Charleston, WV

Current Version | Previous Version | Graphics & Text | Print | Product List | Glossary On
Versions: 1 2 3 4 5 6 7 8 9 10 11 12 13 14 15 16 17 18 19 20 21 22 23
000
FTUS41 KRLX 282300 RRA
TAFCRW
TAF
KCRW 282343Z 2900/2924 00000KT P6SM SCT200
     FM291400 16006KT P6SM BKN120
     FM291700 18008KT 6SM -RA BR BKN060
     FM291800 19009KT 5SM -RA BR OVC050
     FM292000 21009KT 6SM -RA BR OVC040
     FM292300 24010KT 5SM -RA BR OVC025=

USA.gov is the U.S. government's official web portal to all federal, state and local government web resources and services.